DW9572 Weather Reports


time (UTC)temp
C
wind
direction
speed
KPH
gust
KPH
rain 1hr
cm
rain 24hr
cm
rain mn
cm
humidity
%
barometer
mb
20260506044559 22 308 6.4 11.3 0.00 0.00 0.00 37 1008.7
20260506043051 22 300 9.7 14.5 0.00 0.00 0.00 37 1008.7
20260506041545 23 297 9.7 11.3 0.00 0.00 0.00 35 1008.6
20260506040033 23 298 9.7 12.9 0.00 0.00 0.00 34 1008.5
20260506034514 23 299 8.0 11.3 0.00 0.00 0.00 33 1008.4
20260506033014 25 304 6.4 9.7 0.00 0.00 0.00 31 1008.3
20260506031558 25 311 8.0 11.3 0.00 0.00 0.00 32 1008.2
20260506030055 26 339 0.0 0.0 0.00 0.00 0.00 31 1008.0
20260506024543 26 336 0.0 0.0 0.00 0.00 0.00 32 1008.0
20260506023044 27 264 0.0 0.0 0.00 0.00 0.00 30 1008.0
20260506021544 28 249 0.0 6.4 0.00 0.00 0.00 30 1008.0
20260506020042 28 195 0.0 8.0 0.00 0.00 0.00 31 1008.0
20260506014550 28 150 0.0 8.0 0.00 0.00 0.00 31 1008.0
20260506013041 28 127 0.0 9.7 0.00 0.00 0.00 30 1008.0
20260506011542 28 184 4.8 11.3 0.00 0.00 0.00 29 1008.0
20260506010040 28 195 6.4 14.5 0.00 0.00 0.00 30 1008.1
20260506004536 28 180 6.4 14.5 0.00 0.00 0.00 30 1008.1
20260506003021 28 140 0.0 16.1 0.00 0.00 0.00 25 1008.0
20260506001501 28 51 6.4 14.5 0.00 0.00 0.00 24 1008.1
20260506000002 28 93 12.9 19.3 0.00 0.00 0.00 24 1008.3
20260505234549 28 96 4.8 17.7 0.00 0.00 0.00 24 1008.4
20260505233047 28 86 20.9 25.7 0.00 0.00 0.00 24 1008.5
20260505231524 28 90 19.3 24.1 0.00 0.00 0.00 24 1008.5
20260505230026 28 113 11.3 25.7 0.00 0.00 0.00 26 1008.7
20260505224506 28 92 12.9 19.3 0.00 0.00 0.00 25 1008.8
20260505223007 28 101 4.8 17.7 0.00 0.00 0.00 27 1008.9
20260505221550 28 71 9.7 16.1 0.00 0.00 0.00 26 1009.1
20260505220044 28 94 16.1 25.7 0.00 0.00 0.00 26 1009.2
20260505214539 28 44 1.6 25.7 0.00 0.00 0.00 26 1009.3
20260505213033 28 90 17.7 20.9 0.00 0.00 0.00 26 1009.4
20260505211504 27 96 16.1 27.4 0.00 0.00 0.00 27 1009.5
20260505210001 27 65 12.9 25.7 0.00 0.00 0.00 28 1009.7
20260505204543 27 67 14.5 25.7 0.00 0.00 0.00 29 1009.8
20260505203046 27 89 19.3 27.4 0.00 0.00 0.00 28 1010.0
20260505201543 26 8 11.3 27.4 0.00 0.00 0.00 29 1010.0
20260505200029 27 74 22.5 29.0 0.00 0.00 0.00 30 1010.0
20260505194524 26 55 14.5 25.7 0.00 0.00 0.00 32 1010.1
20260505193039 26 43 17.7 35.4 0.00 0.00 0.00 31 1010.1
20260505191522 26 28 16.1 27.4 0.00 0.00 0.00 32 1010.3
20260505190029 25 41 20.9 32.2 0.00 0.00 0.00 32 1010.2
20260505184519 25 3 17.7 30.6 0.00 0.00 0.00 33 1010.4
20260505183017 25 60 19.3 32.2 0.00 0.00 0.00 34 1010.4
20260505181557 23 51 19.3 30.6 0.00 0.00 0.00 35 1010.5
20260505180053 23 65 20.9 30.6 0.00 0.00 0.00 36 1010.4
20260505174538 23 36 22.5 33.8 0.00 0.00 0.00 36 1010.5
20260505173037 22 41 24.1 37.0 0.00 0.00 0.00 37 1010.5
20260505171609 22 23 20.9 33.8 0.00 0.00 0.00 37 1010.5
20260505170012 22 54 20.9 29.0 0.00 0.00 0.00 38 1010.5
20260505164548 22 43 24.1 33.8 0.00 0.00 0.00 38 1010.4
20260505163046 21 30 22.5 27.4 0.00 0.00 0.00 39 1010.4
20260505161525 21 46 19.3 29.0 0.00 0.00 0.00 41 1010.2
20260505153111 19 81 19.3 32.2 0.00 0.00 0.00 46 1010.1
20260505151546 19 91 24.1 29.0 0.00 0.00 0.00 46 1010.0
20260505124608 16 40 8.0 14.5 0.00 0.00 0.00 54 1008.4
20260505123104 16 16 9.7 17.7 0.00 0.00 0.00 54 1008.2
20260505121540 16 4 12.9 19.3 0.00 0.00 0.00 57 1008.0
20260505120021 15 4 16.1 20.9 0.00 0.00 0.00 59 1008.0
20260505114517 15 354 16.1 20.9 0.00 0.00 0.00 62 1007.8
20260505113058 15 349 16.1 19.3 0.00 0.00 0.00 64 1007.8
20260505111602 15 22 6.4 8.0 0.00 0.00 0.00 63 1007.6
20260505101520 16 82 9.7 9.7 0.00 0.00 0.00 58 1006.5
20260505100005 17 353 12.9 14.5 0.00 0.00 0.00 57 1006.4
20260505094501 17 336 0.0 0.0 0.00 0.00 0.00 57 1006.3
20260505093048 16 262 0.0 0.0 0.00 0.00 0.00 57 1006.2
20260505091548 17 25 0.0 3.2 0.00 0.00 0.00 56 1006.2
20260505090042 17 58 6.4 8.0 0.00 0.00 0.00 55 1005.9
20260505084527 19 352 1.6 6.4 0.00 0.00 0.00 47 1005.8
20260505083011 20 320 1.6 8.0 0.00 0.00 0.00 42 1005.8
20260505081508 20 308 0.0 0.0 0.00 0.00 0.00 42 1005.8
20260505080055 20 320 0.0 0.0 0.00 0.00 0.00 43 1005.8
20260505074550 20 353 0.0 1.6 0.00 0.00 0.00 45 1005.7
20260505073045 19 20 1.6 6.4 0.00 0.00 0.00 45 1005.7
20260505071534 20 85 9.7 12.9 0.00 0.00 0.00 44 1005.5
20260505070019 20 255 4.8 9.7 0.00 0.00 0.00 41 1005.1
20260505064513 22 318 9.7 16.1 0.00 0.00 0.00 36 1004.8
20260505063100 21 301 4.8 11.3 0.00 0.00 0.00 39 1004.7
20260505061601 20 321 8.0 14.5 0.00 0.00 0.00 43 1004.8